Meteo Giornale » Osservazioni meteo Egitto » Cairo

ore: 16:30 - Osservazioni Meteo Cairo
Lat. 30° 8' N Lon. 31° 24' E Alt. 64 metri s.l.m.

molto_nuvoloso Africa/Cairo

23 °C

Molto Nuvoloso

Temp. 24 Ore

16 °C

24 °C

Nord-Ovest

20.3 Km/h

Dew point 6 °C

Umidità 33 %

Visibilità  10 Km

Il sole sorge alle ore 05:21

Il sole tramonta alle ore 18:25

Data e Ora Cielo e Fenomeni T °C DP °C Um. % Pres. hPa Vis. km Vento km/h
Oggi h: 16:30 molto_nuvoloso Molto Nuvoloso 23 6 33 1017 10 NO 20.3
Oggi h: 16:00 molto_nuvoloso Molto Nuvoloso 23 7 35 1017 10 NO 18.5
Oggi h: 15:30 molto_nuvoloso Molto Nuvoloso 23 6 33 1017 10 NO 18.5
Oggi h: 15:00 molto_nuvoloso Molto Nuvoloso 24 5 29 1017 10 O 14.8
Oggi h: 14:30 nuvoloso Nuvoloso 23 5 31 1017 10 O/NO 18.5
Oggi h: 14:00 nuvoloso Nuvoloso 24 4 27 1018 10 O/SO 25.9
Oggi h: 13:30 nuvoloso Nuvoloso 23 4 28 1018 10 O/NO 18.5
Oggi h: 13:00 nuvoloso Nuvoloso 23 5 31 1018 10 O/SO 16.7
Oggi h: 12:30 nuvoloso Nuvoloso 22 6 35 1018 10 O 18.5
Oggi h: 12:00 nuvoloso Nuvoloso 22 6 35 1019 10 O 18.5
Oggi h: 11:30 nuvoloso Nuvoloso 22 6 35 1019 10 O/NO 16.7
Oggi h: 11:00 nuvoloso Nuvoloso 21 6 37 1019 10 N/NO 16.7
Oggi h: 10:30 nuvoloso Nuvoloso 20 8 45 1019 10 O/NO 9.3
Oggi h: 10:00 nuvoloso Nuvoloso 19 8 48 1019 10 N/NO 9.3
Oggi h: 08:30 nuvoloso Nuvoloso 18 9 55 1019 10 N/NO 9.3
Oggi h: 08:00 nuvoloso Nuvoloso 17 10 63 1018 10 N 11.1
Oggi h: 07:30 nuvoloso Nuvoloso 17 10 63 1018 10 N 11.1
Oggi h: 07:00 nuvoloso Nuvoloso 16 9 63 1018 10 N 0
Oggi h: 06:30 nuvoloso Nuvoloso 16 8 58 1018 10 N 0
Oggi h: 06:00 nuvoloso Nuvoloso 16 9 63 1017 10 N 0
Oggi h: 05:30 nuvoloso Nuvoloso 16 9 63 1017 10 N 7.4
Oggi h: 05:00 nuvoloso Nuvoloso 16 9 63 1017 10 N 5.5
Oggi h: 04:30 sereno Sereno 16 9 63 1017 10 N 5.5
Oggi h: 04:00 sereno Sereno 16 8 58 1017 10 N 5.5
Oggi h: 03:30 sereno Sereno 16 8 58 1017 10 N 5.5
Oggi h: 03:00 sereno Sereno 16 8 58 1017 10 N 5.5
Oggi h: 02:30 sereno Sereno 16 9 63 1017 10 NE 7.4
Oggi h: 02:00 sereno Sereno 16 9 63 1017 10 NE 7.4
Oggi h: 01:00 sereno Sereno 17 8 55 1017 10 N/NE 9.3
Oggi h: 00:30 sereno Sereno 17 8 55 1018 10 NE 9.3
Oggi h: 00:00 sereno Sereno 17 8 55 1018 10 E/NE 9.3
Ieri h: 23:30 sereno Sereno 17 8 55 1018 10 E/NE 11.1
Ieri h: 23:00 sereno Sereno 18 8 51 1018 10 E/NE 9.3
Ieri h: 22:30 sereno Sereno 18 8 51 1018 10 E/NE 13
Ieri h: 22:00 sereno Sereno 18 8 51 1018 10 N/NE 13
Ieri h: 21:30 sereno Sereno 18 8 51 1018 10 N/NE 13
Ieri h: 21:00 sereno Sereno 19 8 48 1018 10 N 14.8
Ieri h: 20:30 sereno Sereno 19 8 48 1018 10 N 18.5
Ieri h: 20:00 sereno Sereno 21 6 37 1017 10 N/NO 18.5
Ieri h: 19:30 nuvoloso Nuvoloso 21 6 37 1017 10 N/NO 16.7
Ieri h: 19:00 nuvoloso Nuvoloso 21 5 35 1016 10 NO 13
Ieri h: 18:30 nuvoloso Nuvoloso 22 5 32 1016 10 NO 11.1
Ieri h: 18:00 nuvoloso Nuvoloso 22 5 32 1016 10 N/NO 14.8
Ieri h: 17:30 nuvoloso Nuvoloso 23 4 28 1016 10 O/NO 11.1
Ieri h: 17:00 nuvoloso Nuvoloso 23 4 28 1016 10 N/NO 11.1